This is the latest recevied weather packets stored in our database for station/object EB1GOD-1. If no packets are shown the sender has not sent any weather packets the latest 10 day(s).
| Time | Temp. | Humidity | Pressure | Rain* | Wind** | Luminosity | Snow |
|---|---|---|---|---|---|---|---|
| 1777644995 | 18.33° C | 71% | 1156.1 hPa | - | - | - | - |
| 1777644095 | 18.33° C | 70% | 1156.2 hPa | - | - | - | - |
| 1777643195 | 18.33° C | 71% | 1156.4 hPa | - | - | - | - |
| 1777642295 | 18.33° C | 72% | 1156.4 hPa | - | - | - | - |
| 1777641395 | 18.33° C | 73% | 1156.6 hPa | - | - | - | - |
| 1777640495 | 18.33° C | 73% | 1156.6 hPa | - | - | - | - |
| 1777639580 | 17.78° C | 75% | 1156.8 hPa | - | - | - | - |
| 1777638679 | 17.22° C | 76% | 1156.9 hPa | - | - | - | - |
| 1777637779 | 17.22° C | 75% | 1156.7 hPa | - | - | - | - |
| 1777636879 | 17.22° C | 77% | 1156.9 hPa | - | - | - | - |
| 1777635979 | 17.22° C | 77% | 1157 hPa | - | - | - | - |
| 1777635079 | 17.22° C | 75% | 1157.3 hPa | - | - | - | - |
| 1777634179 | 17.78° C | 77% | 1157.3 hPa | - | - | - | - |
| 1777633279 | 17.22° C | 77% | 1157.2 hPa | - | - | - | - |
| 1777632379 | 16.67° C | 77% | 1157.3 hPa | - | - | - | - |
| 1777631479 | 16.67° C | 75% | 1157.3 hPa | - | - | - | - |
| 1777630578 | 16.67° C | 76% | 1157.3 hPa | - | - | - | - |
| 1777629678 | 16.67° C | 76% | 1157.2 hPa | - | - | - | - |
| 1777628778 | 16.67° C | 76% | 1157.4 hPa | - | - | - | - |
| 1777627878 | 16.11° C | 79% | 1157.4 hPa | - | - | - | - |
| 1777626978 | 16.11° C | 78% | 1157.4 hPa | - | - | - | - |
| 1777626078 | 15.56° C | 80% | 1157.5 hPa | - | - | - | - |
| 1777625178 | 15° C | 81% | 1157.5 hPa | - | - | - | - |
| 1777624278 | 15° C | 83% | 1157.5 hPa | - | - | - | - |
| 1777623378 | 15° C | 83% | 1157.6 hPa | - | - | - | - |
* Rain since midnight (hover to see other rain measurements)
** Current wind speed in m/s (hover to see current wind gust speed)